Location: Campillo
(40.8621°N, 4.2488°W)
Time: 12:46:03
(UTC+00:00)

USA 308 - Pass Details

Date: 11 May 2021
Orbit: 568 x 576 km, 54.0° (Epoch: 10 May)

Event Time Altitude Azimuth Distance (km) Brightness Sun altitude
Rises 21:20:34 0° 314° (NW) 2,784 8.1 -18.7°
Reaches altitude 10° 21:23:03 10° 325° (NW) 1,885 6.8 -19.0°
Maximum altitude 21:26:51 30° 28° (NNE) 1,043 4.4 -19.5°
Enters shadow 21:28:44 21° 70° (ENE) 1,302 4.5 -19.7°
